sat.trackr.live / text

‹ back to catalog

STARLINK-4048

NORAD 52839 · 2022-062K

PAYLOAD ACTIVE UNKNOWN

§ Identity

Operator
Country
US
Launch date
2022-06-17
Launch site
AFETR
Launch vehicle
Mass (kg)
RCS (m²)

Purposes: comms

External: N2YO · Heavens-Above · Gunter

§ Orbital elements

Epoch: 2026-05-25T02:43:58.361088Z

Period
95.44 min
Inclination
53.2123°
Eccentricity
0.0001396
Mean motion
15.08835073 rev/d
Perigee alt
538.8 km
Apogee alt
540.7 km
Semi-major
6,917.9 km
B*
5.2019e-5
RAAN
51.0400°
Arg perigee
96.9690°
Mean anomaly
263.1461°
Rev number
21,732

§ Raw data

STARLINK-40481 52839U 22062K   26145.11386992  .00000540  00000+0  52019-4 0  99952 52839  53.2123  51.0400 0001396  96.9690 263.1461 15.08835073217321

JSON: /api/v1/satellites/52839 · /tle

For live sub-satellite position, see the globe view (requires WebGL).

§ Visibility from observer

Set your observer location to see the next 7 days of passes ≥ 10°. The values pass through the URL so the page stays shareable.

No JS? Fill the form by hand. The geolocation button needs JavaScript.